| time (UTC) | temp C | wind direction | speed KPH | gust KPH | rain 1hr cm | rain 24hr cm | rain mn cm | humidity % | barometer mb |
| 20260505035827 | 20 | 340 | 0.0 | 0.0 | 0.00 | 0.00 | 0.00 | 66 | 1009.5 |
| 20260505035323 | 20 | 341 | 0.0 | 1.6 | 0.00 | 0.00 | 0.00 | 66 | 1008.9 |
| 20260505034821 | 20 | 341 | 0.0 | 0.0 | 0.00 | 0.00 | 0.00 | 66 | 1009.2 |
| 20260505034317 | 20 | 315 | 0.0 | 0.0 | 0.00 | 0.00 | 0.00 | 65 | 1009.0 |
| 20260505033814 | 20 | 309 | 0.0 | 1.6 | 0.00 | 0.00 | 0.00 | 67 | 1008.8 |
| 20260505033311 | 20 | 309 | 0.0 | 0.0 | 0.00 | 0.00 | 0.00 | 69 | 1008.6 |
| 20260505032810 | 19 | 309 | 0.0 | 0.0 | 0.00 | 0.00 | 0.00 | 72 | 1008.8 |
| 20260505032305 | 19 | 309 | 0.0 | 0.0 | 0.00 | 0.00 | 0.00 | 70 | 1008.6 |
| 20260505031803 | 20 | 309 | 0.0 | 0.0 | 0.00 | 0.00 | 0.00 | 69 | 1008.4 |
| 20260505031259 | 20 | 308 | 0.0 | 0.0 | 0.00 | 0.00 | 0.00 | 68 | 1008.2 |
| 20260505030756 | 21 | 309 | 0.0 | 0.0 | 0.00 | 0.00 | 0.00 | 66 | 1008.3 |
| 20260505030252 | 21 | 308 | 1.6 | 1.6 | 0.00 | 0.00 | 0.00 | 64 | 1008.6 |
| 20260505025747 | 22 | 309 | 0.0 | 0.0 | 0.00 | 0.00 | 0.00 | 60 | 1008.2 |
| 20260505025246 | 22 | 309 | 0.0 | 0.0 | 0.00 | 0.00 | 0.00 | 55 | 1008.4 |
| 20260505024744 | 22 | 309 | 0.0 | 0.0 | 0.00 | 0.00 | 0.00 | 53 | 1008.2 |
| 20260505024241 | 23 | 309 | 0.0 | 0.0 | 0.00 | 0.00 | 0.00 | 52 | 1008.2 |
| 20260505023738 | 23 | 309 | 0.0 | 0.0 | 0.00 | 0.00 | 0.00 | 51 | 1008.0 |
| 20260505023235 | 23 | 309 | 0.0 | 0.0 | 0.00 | 0.00 | 0.00 | 52 | 1008.2 |
| 20260505022732 | 23 | 310 | 0.0 | 0.0 | 0.00 | 0.00 | 0.00 | 51 | 1008.2 |
| 20260505022229 | 24 | 303 | 0.0 | 0.0 | 0.00 | 0.00 | 0.00 | 51 | 1008.2 |
| 20260505021726 | 24 | 303 | 0.0 | 0.0 | 0.00 | 0.00 | 0.00 | 49 | 1008.3 |
| 20260505021223 | 25 | 303 | 0.0 | 0.0 | 0.00 | 0.00 | 0.00 | 48 | 1008.1 |
| 20260505020719 | 25 | 286 | 0.0 | 0.0 | 0.00 | 0.00 | 0.00 | 45 | 1008.3 |
| 20260505020214 | 25 | 285 | 0.0 | 0.0 | 0.00 | 0.00 | 0.00 | 46 | 1008.0 |
| 20260505015712 | 26 | 285 | 0.0 | 0.0 | 0.00 | 0.00 | 0.00 | 47 | 1008.2 |
| 20260505015209 | 26 | 288 | 0.0 | 0.0 | 0.00 | 0.00 | 0.00 | 44 | 1008.2 |
| 20260505014705 | 26 | 281 | 0.0 | 1.6 | 0.00 | 0.00 | 0.00 | 45 | 1008.1 |
| 20260505014203 | 26 | 285 | 0.0 | 0.0 | 0.00 | 0.00 | 0.00 | 42 | 1008.2 |
| 20260505013659 | 26 | 342 | 1.6 | 3.2 | 0.00 | 0.00 | 0.00 | 41 | 1008.2 |
| 20260505013151 | 26 | 296 | 3.2 | 4.8 | 0.00 | 0.00 | 0.00 | 41 | 1008.3 |
| 20260505012649 | 27 | 282 | 1.6 | 3.2 | 0.00 | 0.00 | 0.00 | 40 | 1008.2 |
| 20260505012146 | 27 | 300 | 0.0 | 1.6 | 0.00 | 0.00 | 0.00 | 40 | 1008.5 |
| 20260505011642 | 27 | 287 | 3.2 | 3.2 | 0.00 | 0.00 | 0.00 | 38 | 1008.4 |
| 20260505011139 | 27 | 303 | 0.0 | 0.0 | 0.00 | 0.00 | 0.00 | 39 | 1008.2 |
| 20260505010639 | 27 | 291 | 1.6 | 1.6 | 0.00 | 0.00 | 0.00 | 39 | 1008.4 |
| 20260505010137 | 28 | 295 | 3.2 | 3.2 | 0.00 | 0.00 | 0.00 | 37 | 1008.5 |
| 20260505005632 | 28 | 289 | 6.4 | 8.0 | 0.00 | 0.00 | 0.00 | 37 | 1008.4 |
| 20260505005130 | 28 | 304 | 0.0 | 1.6 | 0.00 | 0.00 | 0.00 | 37 | 1008.6 |
| 20260505004627 | 28 | 287 | 1.6 | 1.6 | 0.00 | 0.00 | 0.00 | 34 | 1008.5 |
| 20260505004123 | 28 | 298 | 4.8 | 4.8 | 0.00 | 0.00 | 0.00 | 36 | 1008.6 |
| 20260505003621 | 28 | 299 | 0.0 | 1.6 | 0.00 | 0.00 | 0.00 | 36 | 1008.5 |
| 20260505003118 | 28 | 317 | 0.0 | 0.0 | 0.00 | 0.00 | 0.00 | 38 | 1008.7 |
| 20260505002614 | 28 | 304 | 3.2 | 4.8 | 0.00 | 0.00 | 0.00 | 37 | 1008.6 |
| 20260505002113 | 28 | 312 | 4.8 | 4.8 | 0.00 | 0.00 | 0.00 | 37 | 1008.5 |
| 20260505001609 | 28 | 278 | 1.6 | 1.6 | 0.00 | 0.00 | 0.00 | 37 | 1008.4 |
| 20260505001107 | 28 | 338 | 0.0 | 1.6 | 0.00 | 0.00 | 0.00 | 37 | 1008.6 |
| 20260505000604 | 28 | 272 | 0.0 | 0.0 | 0.00 | 0.00 | 0.00 | 35 | 1009.0 |
| 20260504235558 | 28 | 295 | 3.2 | 3.2 | 0.00 | 0.00 | 0.00 | 36 | 1008.5 |
| 20260504235054 | 29 | 275 | 1.6 | 1.6 | 0.00 | 0.00 | 0.00 | 35 | 1008.8 |
| 20260504234551 | 29 | 280 | 6.4 | 9.7 | 0.00 | 0.00 | 0.00 | 34 | 1008.4 |
| 20260504234049 | 29 | 275 | 1.6 | 3.2 | 0.00 | 0.00 | 0.00 | 38 | 1008.8 |
| 20260504233543 | 28 | 308 | 3.2 | 3.2 | 0.00 | 0.00 | 0.00 | 38 | 1008.6 |
| 20260504233040 | 28 | 300 | 1.6 | 3.2 | 0.00 | 0.00 | 0.00 | 39 | 1008.7 |
| 20260504232538 | 28 | 4 | 1.6 | 1.6 | 0.00 | 0.00 | 0.00 | 40 | 1008.7 |
| 20260504232036 | 28 | 183 | 1.6 | 1.6 | 0.00 | 0.00 | 0.00 | 37 | 1008.7 |
| 20260504231532 | 28 | 333 | 0.0 | 0.0 | 0.00 | 0.00 | 0.00 | 42 | 1008.9 |
| 20260504231028 | 27 | 303 | 1.6 | 3.2 | 0.00 | 0.00 | 0.00 | 40 | 1008.8 |
| 20260504230525 | 28 | 323 | 4.8 | 8.0 | 0.00 | 0.00 | 0.00 | 38 | 1008.8 |
| 20260504230024 | 28 | 323 | 0.0 | 0.0 | 0.00 | 0.00 | 0.00 | 40 | 1008.6 |
| 20260504225520 | 28 | 263 | 0.0 | 1.6 | 0.00 | 0.00 | 0.00 | 38 | 1008.9 |
| 20260504225017 | 28 | 210 | 1.6 | 1.6 | 0.00 | 0.00 | 0.00 | 42 | 1008.8 |
| 20260504224514 | 27 | 46 | 3.2 | 4.8 | 0.00 | 0.00 | 0.00 | 38 | 1008.9 |
| 20260504224011 | 27 | 358 | 4.8 | 8.0 | 0.00 | 0.00 | 0.00 | 40 | 1008.9 |
| 20260504223508 | 28 | 292 | 0.0 | 0.0 | 0.00 | 0.00 | 0.00 | 38 | 1008.9 |
| 20260504223004 | 28 | 248 | 0.0 | 0.0 | 0.00 | 0.00 | 0.00 | 38 | 1009.0 |
| 20260504222500 | 28 | 326 | 1.6 | 3.2 | 0.00 | 0.00 | 0.00 | 40 | 1009.2 |
| 20260504221958 | 28 | 353 | 4.8 | 9.7 | 0.00 | 0.00 | 0.00 | 37 | 1009.3 |
| 20260504221455 | 28 | 281 | 0.0 | 1.6 | 0.00 | 0.00 | 0.00 | 41 | 1009.1 |
| 20260504220952 | 28 | 313 | 4.8 | 8.0 | 0.00 | 0.00 | 0.00 | 37 | 1009.1 |
| 20260504220448 | 28 | 307 | 1.6 | 3.2 | 0.00 | 0.00 | 0.00 | 39 | 1009.3 |
| 20260504215945 | 28 | 280 | 3.2 | 4.8 | 0.00 | 0.00 | 0.00 | 40 | 1009.3 |
| 20260504215442 | 28 | 292 | 3.2 | 3.2 | 0.00 | 0.00 | 0.00 | 40 | 1009.4 |
| 20260504214939 | 28 | 318 | 3.2 | 3.2 | 0.00 | 0.00 | 0.00 | 41 | 1009.5 |
| 20260504214435 | 27 | 281 | 0.0 | 1.6 | 0.00 | 0.00 | 0.00 | 43 | 1009.3 |
| 20260504213932 | 27 | 314 | 1.6 | 1.6 | 0.00 | 0.00 | 0.00 | 42 | 1009.4 |
| 20260504213428 | 27 | 289 | 3.2 | 3.2 | 0.00 | 0.00 | 0.00 | 41 | 1009.4 |
| 20260504212926 | 27 | 334 | 3.2 | 3.2 | 0.00 | 0.00 | 0.00 | 40 | 1009.3 |
| 20260504212421 | 27 | 339 | 3.2 | 4.8 | 0.00 | 0.00 | 0.00 | 43 | 1009.3 |
| 20260504211919 | 27 | 39 | 1.6 | 3.2 | 0.00 | 0.00 | 0.00 | 41 | 1009.5 |
| 20260504211415 | 27 | 155 | 1.6 | 1.6 | 0.00 | 0.00 | 0.00 | 40 | 1009.3 |
| 20260504210912 | 27 | 294 | 4.8 | 4.8 | 0.00 | 0.00 | 0.00 | 42 | 1009.5 |
| 20260504210409 | 27 | 259 | 0.0 | 0.0 | 0.00 | 0.00 | 0.00 | 41 | 1009.5 |
| 20260504205907 | 27 | 326 | 8.0 | 12.9 | 0.00 | 0.00 | 0.00 | 42 | 1009.6 |
| 20260504205404 | 27 | 288 | 1.6 | 1.6 | 0.00 | 0.00 | 0.00 | 44 | 1009.6 |
| 20260504204902 | 27 | 7 | 0.0 | 1.6 | 0.00 | 0.00 | 0.00 | 45 | 1009.6 |
| 20260504204400 | 27 | 280 | 0.0 | 0.0 | 0.00 | 0.00 | 0.00 | 41 | 1009.6 |
| 20260504203900 | 27 | 323 | 0.0 | 0.0 | 0.00 | 0.00 | 0.00 | 43 | 1009.7 |
| 20260504203356 | 27 | 287 | 3.2 | 4.8 | 0.00 | 0.00 | 0.00 | 41 | 1009.9 |
| 20260504202852 | 26 | 159 | 4.8 | 4.8 | 0.00 | 0.00 | 0.00 | 43 | 1009.9 |
| 20260504202349 | 26 | 161 | 1.6 | 1.6 | 0.00 | 0.00 | 0.00 | 45 | 1009.8 |
| 20260504201845 | 26 | 57 | 3.2 | 3.2 | 0.00 | 0.00 | 0.00 | 44 | 1009.7 |
| 20260504201343 | 26 | 288 | 4.8 | 4.8 | 0.00 | 0.00 | 0.00 | 45 | 1009.9 |
| 20260504200840 | 26 | 227 | 1.6 | 1.6 | 0.00 | 0.00 | 0.00 | 48 | 1009.9 |
| 20260504200331 | 26 | 260 | 1.6 | 3.2 | 0.00 | 0.00 | 0.00 | 44 | 1009.8 |
| 20260504195827 | 26 | 161 | 1.6 | 1.6 | 0.00 | 0.00 | 0.00 | 44 | 1009.9 |
| 20260504195323 | 26 | 294 | 3.2 | 3.2 | 0.00 | 0.00 | 0.00 | 46 | 1009.9 |
| 20260504194820 | 26 | 250 | 3.2 | 3.2 | 0.00 | 0.00 | 0.00 | 43 | 1009.8 |
| 20260504194316 | 26 | 281 | 0.0 | 0.0 | 0.00 | 0.00 | 0.00 | 45 | 1009.8 |
| 20260504193812 | 26 | 321 | 1.6 | 1.6 | 0.00 | 0.00 | 0.00 | 48 | 1009.9 |
| 20260504193310 | 26 | 330 | 1.6 | 3.2 | 0.00 | 0.00 | 0.00 | 47 | 1010.0 |
| 20260504192808 | 26 | 311 | 1.6 | 3.2 | 0.00 | 0.00 | 0.00 | 46 | 1010.1 |
| 20260504192306 | 26 | 312 | 0.0 | 1.6 | 0.00 | 0.00 | 0.00 | 46 | 1009.9 |
| 20260504191805 | 26 | 41 | 3.2 | 3.2 | 0.00 | 0.00 | 0.00 | 47 | 1010.1 |
| 20260504191301 | 25 | 277 | 1.6 | 3.2 | 0.00 | 0.00 | 0.00 | 48 | 1010.2 |
| 20260504190757 | 26 | 288 | 8.0 | 9.7 | 0.00 | 0.00 | 0.00 | 44 | 1010.1 |
| 20260504190253 | 26 | 156 | 0.0 | 0.0 | 0.00 | 0.00 | 0.00 | 47 | 1010.2 |
| 20260504185750 | 26 | 143 | 4.8 | 4.8 | 0.00 | 0.00 | 0.00 | 45 | 1010.3 |
| 20260504185247 | 26 | 154 | 0.0 | 1.6 | 0.00 | 0.00 | 0.00 | 45 | 1010.1 |
| 20260504184743 | 25 | 155 | 3.2 | 3.2 | 0.00 | 0.00 | 0.00 | 45 | 1010.1 |
| 20260504184239 | 25 | 155 | 3.2 | 4.8 | 0.00 | 0.00 | 0.00 | 47 | 1010.3 |
| 20260504183735 | 25 | 111 | 0.0 | 0.0 | 0.00 | 0.00 | 0.00 | 47 | 1010.2 |
| 20260504183232 | 25 | 131 | 4.8 | 4.8 | 0.00 | 0.00 | 0.00 | 47 | 1010.4 |
| 20260504182730 | 25 | 150 | 4.8 | 4.8 | 0.00 | 0.00 | 0.00 | 45 | 1010.3 |
| 20260504182227 | 25 | 151 | 1.6 | 3.2 | 0.00 | 0.00 | 0.00 | 47 | 1010.1 |
| 20260504181725 | 25 | 150 | 1.6 | 1.6 | 0.00 | 0.00 | 0.00 | 48 | 1010.3 |
| 20260504181222 | 25 | 57 | 0.0 | 0.0 | 0.00 | 0.00 | 0.00 | 48 | 1010.4 |
| 20260504180721 | 25 | 298 | 0.0 | 0.0 | 0.00 | 0.00 | 0.00 | 51 | 1010.5 |
| 20260504180219 | 25 | 70 | 1.6 | 3.2 | 0.00 | 0.00 | 0.00 | 50 | 1010.6 |
| 20260504175716 | 24 | 143 | 0.0 | 0.0 | 0.00 | 0.00 | 0.00 | 51 | 1010.4 |
| 20260504175213 | 24 | 143 | 1.6 | 1.6 | 0.00 | 0.00 | 0.00 | 51 | 1010.4 |
| 20260504174711 | 24 | 144 | 1.6 | 1.6 | 0.00 | 0.00 | 0.00 | 51 | 1010.3 |
| 20260504174209 | 25 | 140 | 0.0 | 0.0 | 0.00 | 0.00 | 0.00 | 50 | 1010.4 |
| 20260504173704 | 24 | 140 | 0.0 | 0.0 | 0.00 | 0.00 | 0.00 | 51 | 1010.2 |
| 20260504173202 | 24 | 140 | 3.2 | 3.2 | 0.00 | 0.00 | 0.00 | 50 | 1010.5 |
| 20260504172658 | 23 | 140 | 0.0 | 1.6 | 0.00 | 0.00 | 0.00 | 52 | 1010.3 |
| 20260504172155 | 23 | 140 | 0.0 | 0.0 | 0.00 | 0.00 | 0.00 | 52 | 1010.3 |
| 20260504171651 | 23 | 140 | 0.0 | 0.0 | 0.00 | 0.00 | 0.00 | 55 | 1010.5 |
| 20260504171148 | 23 | 139 | 0.0 | 0.0 | 0.00 | 0.00 | 0.00 | 54 | 1010.4 |
| 20260504170645 | 23 | 139 | 0.0 | 0.0 | 0.00 | 0.00 | 0.00 | 55 | 1010.5 |
| 20260504170143 | 22 | 139 | 0.0 | 0.0 | 0.00 | 0.00 | 0.00 | 57 | 1010.4 |
| 20260504151022 | 12 | 143 | 1.6 | 3.2 | 0.00 | 0.00 | 0.00 | 98 | 1010.3 |
| 20260504150519 | 11 | 145 | 0.0 | 0.0 | 0.00 | 0.00 | 0.00 | 99 | 1010.2 |
| 20260504140951 | 9 | 146 | 0.0 | 0.0 | 0.00 | 0.00 | 0.00 | 99 | 1009.9 |
| 20260504140447 | 9 | 146 | 0.0 | 0.0 | 0.00 | 0.00 | 0.00 | 99 | 1010.1 |
| 20260504130412 | 8 | 146 | 0.0 | 0.0 | 0.00 | 0.00 | 0.00 | 99 | 1009.7 |
| 20260504110259 | 8 | 146 | 0.0 | 0.0 | 0.00 | 0.00 | 0.00 | 99 | 1009.4 |
| 20260504100217 | 9 | 146 | 0.0 | 0.0 | 0.00 | 0.00 | 0.00 | 99 | 1009.1 |
| 20260504090140 | 10 | 146 | 0.0 | 0.0 | 0.00 | 0.00 | 0.00 | 99 | 1009.1 |
| 20260504081610 | 11 | 146 | 0.0 | 0.0 | 0.00 | 0.00 | 0.00 | 99 | 1009.2 |
| 20260504081105 | 11 | 146 | 0.0 | 0.0 | 0.00 | 0.00 | 0.00 | 99 | 1009.4 |
| 20260504080603 | 11 | 146 | 0.0 | 0.0 | 0.00 | 0.00 | 0.00 | 99 | 1009.5 |
| 20260504050415 | 15 | 146 | 0.0 | 0.0 | 0.00 | 0.00 | 0.00 | 92 | 1009.1 |
| 20260504045912 | 15 | 146 | 0.0 | 0.0 | 0.00 | 0.00 | 0.00 | 91 | 1009.0 |
| 20260504045408 | 15 | 146 | 0.0 | 0.0 | 0.00 | 0.00 | 0.00 | 90 | 1009.1 |
| 20260504044904 | 15 | 146 | 0.0 | 0.0 | 0.00 | 0.00 | 0.00 | 89 | 1009.0 |
| 20260504044402 | 16 | 146 | 0.0 | 0.0 | 0.00 | 0.00 | 0.00 | 88 | 1009.0 |
| 20260504043859 | 16 | 146 | 0.0 | 0.0 | 0.00 | 0.00 | 0.00 | 88 | 1009.0 |
| 20260504043356 | 16 | 146 | 0.0 | 0.0 | 0.00 | 0.00 | 0.00 | 88 | 1009.1 |
| 20260504042853 | 16 | 146 | 0.0 | 0.0 | 0.00 | 0.00 | 0.00 | 87 | 1008.9 |
| 20260504042349 | 16 | 146 | 0.0 | 0.0 | 0.00 | 0.00 | 0.00 | 85 | 1008.8 |
| 20260504041846 | 17 | 146 | 0.0 | 0.0 | 0.00 | 0.00 | 0.00 | 81 | 1008.8 |
| 20260504041342 | 17 | 146 | 0.0 | 1.6 | 0.00 | 0.00 | 0.00 | 81 | 1008.6 |
| 20260504040838 | 17 | 137 | 3.2 | 3.2 | 0.00 | 0.00 | 0.00 | 78 | 1008.6 |
| 20260504040336 | 17 | 130 | 0.0 | 1.6 | 0.00 | 0.00 | 0.00 | 79 | 1008.8 |